Time,TemperatureF,DewpointF,PressureIn,WindDirection,WindDirectionDegrees,WindSpeedMPH,WindSpeedGustMPH,Humidity,HourlyPrecipIn,Conditions,Clouds,dailyrainin,SolarRadiationWatts/m^2,SoftwareType,DateUTC
2013-08-18 00:00:00,72.5,56.9,30.02,ENE,68,1.0,7.0,58,0.00,CLR,FEW,0.00,0.0,WeatherDisplay:10.37,2013-08-17 22:00:00,
2013-08-18 00:30:00,72.9,56.3,30.02,ENE,65,1.0,7.0,56,0.00,CLR,FEW,0.00,0.0,WeatherDisplay:10.37,2013-08-17 22:30:00,
2013-08-18 01:00:00,71.9,56.3,30.02,ENE,67,1.0,5.0,58,0.00,CLR,FEW,0.00,0.0,WeatherDisplay:10.37,2013-08-17 23:00:00,
2013-08-18 01:30:00,71.7,56.1,30.02,ENE,63,0.0,5.0,58,0.00,CLR,FEW,0.00,0.0,WeatherDisplay:10.37,2013-08-17 23:30:00,
2013-08-18 02:00:00,71.1,56.0,30.01,ENE,63,1.0,4.0,59,0.00,CLR,FEW,0.00,0.0,WeatherDisplay:10.37,2013-08-18 00:00:00,
2013-08-18 02:30:00,70.5,55.5,30.02,ENE,63,0.0,3.0,59,0.00,CLR,FEW,0.00,0.0,WeatherDisplay:10.37,2013-08-18 00:30:00,
2013-08-18 03:00:00,70.9,55.9,30.01,ENE,64,1.0,7.0,59,0.00,CLR,FEW,0.00,0.0,WeatherDisplay:10.37,2013-08-18 01:00:00,
2013-08-18 03:30:00,70.5,55.4,30.01,ENE,66,1.0,7.0,59,0.00,CLR,FEW,0.00,0.0,WeatherDisplay:10.37,2013-08-18 01:30:00,
2013-08-18 04:00:00,69.9,54.9,30.01,ENE,66,0.0,3.0,59,0.00,CLR,FEW,0.00,0.0,WeatherDisplay:10.37,2013-08-18 02:00:00,
2013-08-18 04:30:00,70.0,55.0,30.01,ENE,67,2.0,5.0,59,0.00,CLR,FEW,0.00,0.0,WeatherDisplay:10.37,2013-08-18 02:30:00,
2013-08-18 05:00:00,70.2,53.8,30.00,ENE,70,1.0,7.0,56,0.00,CLR,FEW,0.00,0.0,WeatherDisplay:10.37,2013-08-18 03:00:00,
2013-08-18 05:30:00,69.7,52.8,30.01,ENE,74,1.0,5.0,55,0.00,CLR,FEW,0.00,0.0,WeatherDisplay:10.37,2013-08-18 03:30:00,
2013-08-18 06:00:00,70.0,54.1,30.01,ENE,73,2.0,7.0,57,0.00,OVC,FEW,0.00,0.0,WeatherDisplay:10.37,2013-08-18 04:00:00,
2013-08-18 06:30:00,69.7,55.6,30.01,ENE,71,0.0,8.0,61,0.00,OVC,FEW,0.00,11.0,WeatherDisplay:10.37,2013-08-18 04:30:00,
2013-08-18 07:00:00,68.9,54.4,30.02,ENE,71,1.0,4.0,60,0.00,OVC,FEW,0.00,25.0,WeatherDisplay:10.37,2013-08-18 05:00:00,
2013-08-18 07:30:00,69.1,54.6,30.02,ENE,74,1.0,7.0,60,0.00,OVC,FEW,0.00,39.0,WeatherDisplay:10.37,2013-08-18 05:30:00,
2013-08-18 08:00:00,72.2,56.1,30.03,ENE,77,0.0,7.0,57,0.00,BKN,FEW,0.00,241.0,WeatherDisplay:10.37,2013-08-18 06:00:00,
2013-08-18 08:30:00,75.2,57.9,30.03,ENE,78,0.0,3.0,55,0.00,SCT,FEW,0.00,334.0,WeatherDisplay:10.37,2013-08-18 06:30:00,
2013-08-18 09:00:00,78.5,59.4,30.03,ENE,78,0.0,3.0,52,0.00,SCT,FEW,0.00,425.0,WeatherDisplay:10.37,2013-08-18 07:00:00,
2013-08-18 09:30:00,80.5,61.8,30.04,ENE,78,0.0,2.0,53,0.00,SCT,FEW,0.00,512.0,WeatherDisplay:10.37,2013-08-18 07:30:00,
2013-08-18 10:00:00,81.4,62.1,30.04,ENE,78,0.0,3.0,52,0.00,SCT,FEW,0.00,591.0,WeatherDisplay:10.37,2013-08-18 08:00:00,
2013-08-18 10:30:00,81.3,62.0,30.05,North,5,1.0,4.0,52,0.00,SCT,FEW,0.00,664.0,WeatherDisplay:10.37,2013-08-18 08:30:00,
2013-08-18 11:00:00,82.2,61.7,30.05,NNW,342,1.0,5.0,50,0.00,SCT,FEW,0.00,726.0,WeatherDisplay:10.37,2013-08-18 09:00:00,
2013-08-18 11:30:00,82.9,60.6,30.05,NW,309,0.0,6.0,47,0.00,SCT,FEW,0.00,779.0,WeatherDisplay:10.37,2013-08-18 09:30:00,
2013-08-18 12:00:00,85.4,59.0,30.05,WNW,288,0.0,5.0,41,0.00,FEW,FEW,0.00,814.0,WeatherDisplay:10.37,2013-08-18 10:00:00,
2013-08-18 12:30:00,86.9,57.5,30.04,WNW,300,2.0,5.0,37,0.00,FEW,FEW,0.00,833.0,WeatherDisplay:10.37,2013-08-18 10:30:00,
2013-08-18 13:00:00,88.3,61.6,30.04,WNW,303,1.0,5.0,41,0.00,FEW,FEW,0.00,840.0,WeatherDisplay:10.37,2013-08-18 11:00:00,
2013-08-18 13:30:00,88.7,58.3,30.04,South,181,1.0,6.0,36,0.00,FEW,FEW,0.00,840.0,WeatherDisplay:10.37,2013-08-18 11:30:00,
2013-08-18 14:00:00,89.0,57.0,30.03,WNW,285,1.0,5.0,34,0.00,FEW,FEW,0.00,823.0,WeatherDisplay:10.37,2013-08-18 12:00:00,
2013-08-18 14:30:00,90.1,60.3,30.03,SSE,159,1.0,6.0,37,0.00,CLR,FEW,0.00,784.0,WeatherDisplay:10.37,2013-08-18 12:30:00,
2013-08-18 15:00:00,89.2,65.7,30.02,West,276,1.0,9.0,46,0.00,CLR,FEW,0.00,765.0,WeatherDisplay:10.37,2013-08-18 13:00:00,
2013-08-18 15:30:00,89.5,65.4,30.01,West,281,1.0,10.0,45,0.00,CLR,FEW,0.00,684.0,WeatherDisplay:10.37,2013-08-18 13:30:00,
2013-08-18 16:00:00,89.3,64.5,30.01,WNW,291,2.0,7.0,44,0.00,CLR,FEW,0.00,622.0,WeatherDisplay:10.37,2013-08-18 14:00:00,
2013-08-18 16:30:00,89.5,65.4,30.00,West,277,1.0,9.0,45,0.00,CLR,FEW,0.00,538.0,WeatherDisplay:10.37,2013-08-18 14:30:00,
2013-08-18 17:00:00,87.6,64.2,30.00,WNW,296,1.0,6.0,46,0.00,CLR,FEW,0.00,454.0,WeatherDisplay:10.37,2013-08-18 15:00:00,
2013-08-18 17:30:00,87.2,63.2,30.00,SSW,193,0.0,6.0,45,0.00,CLR,FEW,0.00,367.0,WeatherDisplay:10.37,2013-08-18 15:30:00,
2013-08-18 18:00:00,85.9,63.3,30.00,West,263,0.0,9.0,47,0.00,CLR,FEW,0.00,276.0,WeatherDisplay:10.37,2013-08-18 16:00:00,
2013-08-18 18:30:00,83.7,61.9,30.00,NW,310,0.0,5.0,48,0.00,CLR,FEW,0.00,53.0,WeatherDisplay:10.37,2013-08-18 16:30:00,
2013-08-18 19:00:00,81.6,60.6,30.00,NW,305,0.0,3.0,49,0.00,OVC,FEW,0.00,37.0,WeatherDisplay:10.37,2013-08-18 17:00:00,
2013-08-18 19:30:00,80.1,60.9,30.00,NW,305,0.0,1.0,52,0.00,OVC,FEW,0.00,19.0,WeatherDisplay:10.37,2013-08-18 17:30:00,
2013-08-18 20:00:00,77.1,61.2,30.00,NW,305,0.0,1.0,58,0.00,CLR,FEW,0.00,0.0,WeatherDisplay:10.37,2013-08-18 18:00:00,
2013-08-18 20:30:00,74.1,60.2,30.01,ESE,104,1.0,4.0,62,0.00,CLR,FEW,0.00,0.0,WeatherDisplay:10.37,2013-08-18 18:30:00,